885  
ASUS44 KBMX 201210  
RWRAL  
 
ALABAMA REGIONAL WEATHER ROUNDUP  
NATIONAL WEATHER SERVICE BIRMINGHAM AL  
700 AM CDT SAT APR 20 2019  
 
NOTE: "FAIR" INDICATES FEW OR NO CLOUDS BELOW 12,000 FEET  
WITH NO SIGNIFICANT WEATHER AND/OR S TO VISIBILITY
.  
 
THE REMARK "TC" DENOTES TEMPERATURE IN DEGREES CELSIUS.  
 
ALZ001>011-014-016>018-020-201300-  
NORTH ALABAMA  
 
CITY SKY/WX TMP DP RH WIND PRES REMARKS
 
MUSCLE SHOALS CLOUDY 45 41 86 NW9G20 29.74R  
6HR MIN TEMP: 44; 6HR MAX TEMP: 46; 6HR PCP: 0.22;  
 
HUNTSVILLE CLOUDY 43 41 93 W8 29.70R  
6HR MIN TEMP: 42; 6HR MAX TEMP: 44; 6HR PCP: 0.13;  
 
DECATUR CLOUDY 44 40 85 W13G21 29.70R  
6HR MIN TEMP: 42; 6HR MAX TEMP: 44; 6HR PCP: 0.09;  
 
HALEYVILLE CLOUDY 43 40 89 NW8 29.76  
6HR MIN TEMP: 42; 6HR MAX TEMP: 44; 6HR PCP: 0.17;  
 
GADSDEN LGT RAIN 44 44 100 W12 29.72R  
6HR MIN TEMP: 43; 6HR MAX TEMP: 44; 6HR PCP: 0.10;  
 

 
 
ALZ012-013-022-023-030>036-040>044-201300-  
WEST CENTRAL ALABAMA  
 
CITY SKY/WX TMP DP RH WIND PRES REMARKS
 
TUSCALOOSA CLOUDY 50 40 68 W9 29.81R  
6HR MIN TEMP: 47; 6HR MAX TEMP: 50; 6HR PCP: 0.01;  
 
DEMOPOLIS FAIR 49 42 76 W13 29.86R  
6HR MIN TEMP: 47; 6HR MAX TEMP: 49;  
 

 
 
ALZ015-024>026-033>036-041>044-201300-  
CENTRAL ALABAMA  
 
CITY SKY/WX TMP DP RH WIND PRES REMARKS
 
BIRMINGHAM LGT RAIN 46 43 89 W15 29.76R  
6HR MIN TEMP: 44; 6HR MAX TEMP: 46; 6HR PCP: 0.15;  
 
MONTGOMERY CLOUDY 49 43 80 SW15G22 29.81R  
6HR MIN TEMP: 47; 6HR MAX TEMP: 49; 6HR PCP: TRACE;  
 
SHELBY CO ARPT CLOUDY 46 43 89 VRB6 29.76R  
6HR MIN TEMP: 44; 6HR MAX TEMP: 46; 6HR PCP: 0.08;  
 
MAXWELL AFB MOCLDY 49 42 78 SW12G18 29.78S  
6HR MIN TEMP: 47; 6HR MAX TEMP: 49; 6HR PCP: TRACE;  
 
GREENVILLE FAIR 48 41 76 SW9 29.84R  
6HR MIN TEMP: 48; 6HR MAX TEMP: 48; 6HR PCP: TRACE;  
 
SELMA N/A 48 43 81 W12G18 29.82R  
PRATTVILLE PTSUNNY 47 44 88 SW8G16 29.80S  
6HR MIN TEMP: 46; 6HR MAX TEMP: 47;  
 
BESSEMER CLOUDY 45 43 93 W13 29.76R  
6HR MIN TEMP: 44; 6HR MAX TEMP: 45; 6HR PCP: 0.07;  
 
TALLADEGA CLOUDY 46 44 93 W10 29.73R  
6HR MIN TEMP: 44; 6HR MAX TEMP: 46; 6HR PCP: 0.16;  
 
PELL CITY PTSUNNY 46 46 100 SW7 29.73R FOG  
MARION FAIR 47 43 85 W9G16 29.83R  
6HR MIN TEMP: 46; 6HR MAX TEMP: 47;  
 
SYLACAUGA CLOUDY 46 45 97 W10 29.76R  
6HR MIN TEMP: 44; 6HR MAX TEMP: 46; 6HR PCP: 0.08;  
 

 
 
ALZ019-021-028-029-037-038-045>048-201300-  
EAST CENTRAL ALABAMA  
 
CITY SKY/WX TMP DP RH WIND PRES REMARKS
 
ANNISTON LGT RAIN 44 42 93 W9 29.72R  
6HR MIN TEMP: 44; 6HR MAX TEMP: 45; 6HR PCP: 0.21;  
 
ALEXANDER CITY LGT RAIN 46 43 90 SW9G21 29.74S  
6HR MIN TEMP: 45; 6HR MAX TEMP: 46; 6HR PCP: 0.05;  
 
AUBURN CLOUDY 45 50 100 SW14 29.77S  
6HR MIN TEMP: 44; 6HR MAX TEMP: 45; 6HR PCP: 0.01;  
 

 
 
ALZ051>064-201300-  
SOUTHWEST ALABAMA  
 
CITY SKY/WX TMP DP RH WIND PRES REMARKS
 
MOBILE FAIR 49 44 83 SW3 29.95R  
6HR MIN TEMP: 48; 6HR MAX TEMP: 51;  
 
BROOKLEY FIELD FAIR 52 44 74 W6 29.95R  
6HR MIN TEMP: 51; 6HR MAX TEMP: 54;  
 
EVERGREEN FAIR 49 43 80 SW10 29.89R  
6HR MIN TEMP: 49; 6HR MAX TEMP: 50; 6HR PCP: TRACE;  
 

 
 
ALZ049-050-065>069-201300-  
SOUTHEAST ALABAMA  
 
CITY SKY/WX TMP DP RH WIND PRES REMARKS
 
DOTHAN FAIR 47 41 80 SW13 29.89R  
6HR MIN TEMP: 46; 6HR MAX TEMP: 50;  
 
OZARK MOCLDY 47 42 85 SW9 29.87R  
6HR MIN TEMP: 46; 6HR MAX TEMP: 49;  
 
TROY FAIR 47 42 83 SW9 29.84R  
6HR MIN TEMP: 46; 6HR MAX TEMP: 48;  
 
EUFAULA NOT AVBL  

 
 
 
CLICK HERE TO GO TO PREVIOUS BULLETINS.

The Nexlab AL Page Main Text Page